Погода в Кировограде

Погода в Кировограде : погода сейчас, прогноз погоды и архив. Всё, что Вы хотите узнать о погоде в Кировограде!

Хотите узнать прогноз погоды в Кировограде? Тогда Вам сюда: Погода в Кировограде

Поиск расширенной информации на нашем сайте:

Полезная информация:

Другие новости

Новости СМИ2

Главная страница сайта

Новости сайта

03.07.2017

Напоминаем, что на нашем специализированном сайте Метеоцентр.Азия вы можете получить высокодетализированные автоматические прогнозы погоды по пунктам России, СНГ и мира в авиационном формате (включающие направление и скорость ветра, видимость, явления погоды, количество и форму облачности, нижнюю и верхнюю границу облачности).

Рекомендуем:

Погода в Кировограде - сегодня

Время (UTC), дата Ветер
(°,м/с) 
Видим.   Явления Облачность Т
(°С)
Тd
(°С)
f(%) Тe
(°С)
Pmin
(гПа)
dP
(гПа)
Po
(мм)
O2
(г/м3)
Тmin Tmax R s Состояние
почвы
12 15.07.19 350 (С) 20000 м  в посл. час гроза  9/6 1200 м кучево-дожд., средняя 
[Cb calv|Ac trans]
+25.4 +11.2 41 +28  1007  -0.4  741  271           
15 15.07.19 340 (С) 20000 м  в посл. час ливневой дождь  9/4 1000 м кучево-дожд., средняя 
[Cb calv|Ac trans]
+24.6 +11.9 45 +29  1007  -0.1  741  272           
18 15.07.19 340 (С) 20000 м  {ливн. осадки}  10/4 1000 м кучево-дожд., средняя 
[Cb calv|Ac As]
+21.4 +14.1 63 +29  1007.9  0.7  741  274    +25.9  0.0     
21 15.07.19 040 (СВ) 6000 м  гроза, ливневой дождь  10/8 480 м кучево-дожд., средняя 
[Cb cap|Ac As]
+17.3 +16 92 +29  1010.2  743  278           
00 16.07.19 260 (З) 10 км  слаб. ливневой дождь{гроза}  10/6 1200 м кучево-дожд., средняя 
[Cb calv|Ac As]
+16 +15.3 96 +27  1008.2  -2  741  279           
03 16.07.19 360 (С) 5000 м  дымка{ливн. осадки}  10/0 средняя, верхняя 
[Ac trans|Ci fib]
+14.1 +13.7 97 +22  1008.4  741  281           
06 16.07.19 350 (С) 20000 м  {ливн. осадки}  8/0 средняя, верхняя 
[Ac trans|Ci fib]
+18.2 +15.7 85 +28  1008.5  0.4  741  277  +14.1    10     
09 16.07.19 020 (С) 20000 м    8/8 720 м 
[Sc]
+22 +15.2 65 +31  1008.2  741  273           
12 16.07.19 360 (С) 20000 м    8/8 1000 м кучево-дожд. 
[Cb calv]
+23 +13.8 56 +30  1007.6  -0.6  741  273           
15 16.07.19 340 (С) 20000 м    5/5 1000 м 
[Cu hum]
+24.6 +13.4 50 +31  1007.1  -0.4  741  271           
18 16.07.19 тихо ()   20000 м    6/4 1230 м средняя 
[Sc|Ac trans]
+21 +14.6 67 +29  1007.9  0.6  741  274    +24.8       
21 16.07.19 270 (З) 10 км    8/0 средняя 
[Ac trans]
+17 +13.5 80 +24  1008.8  0.6  742  279           
00 17.07.19 тихо ()   10 км    ясно 
+14.8 +13.2 90 +21  1008.6  -0.3  741  281           
03 17.07.19 тихо ()   10 км  местами туман поземный  ясно 
+13.1 +12.4 96 +18  1008.5  -0.3  741  283           
06 17.07.19 290 (З) 20000 м    ясно 
+20.2 +12.2 60 +25  1008.3  0.3  741  276  +12.9  -2.5       
09 17.07.19 290 (З) 20000 м    9/9 1200 м кучево-дожд. 
[Cb calv]
+23.2 +10.2 44 +25  1007.8  -0.3  741  273           
12 17.07.19 290 (З) 20000 м  {ливн. осадки}  8/8 1300 м кучево-дожд. 
[Cb calv]
+24.8 +11 42 +28  1007.2  -0.5  741  272           
15 17.07.19 320 (СЗ) 20000 м    8/0 средняя 
[Ac trans]
+24 +10.4 42 +26  1006.9  -0.3  741  272           
18 17.07.19 300 (СЗ) 20000 м    8/0 средняя 
[Ac trans]
+20.6 +12.1 58 +25  1007.5  0.4  741  275      0.0     
21 17.07.19 270 (З) 10 км    3/0 средняя 
[Ac trans]
+15.3 +8.9 66 +17  1008.9  742  281           
00 18.07.19 280 (З) 10 км    ясно 
+12.2 +10.1 87 +14  1009.3  0.1  742  284           
03 18.07.19 280 (З) 20000 м    1/0 средняя 
[Ac trans]
+11.7 +10.3 91 +14  1010.2  0.9  742  285           
06 18.07.19 300 (СЗ) 20000 м    3/0 средняя 
[Ac trans]
+16.1 +11.1 72 +19  1010.5  0.6  743  281  +11.5  +2.4       
09 18.07.19 320 (СЗ) 20000 м    3/3 1500 м 
[Cu hum]
+20.5 +8.1 45 +21  1010.6  0.4  743  277           
12 18.07.19 270 (З) 20000 м    8/8 1500 м 
[Cu hum]
+24 +7.8 35 +24  1010.5  0.1  743  274           
Время (UTC), дата Ветер
(°,м/с) 
Видим.   Явления Облачность Т
(°С)
Тd
(°С)
f(%) Тe
(°С)
Pmin
(гПа)
dP
(гПа)
Po
(мм)
O2
(г/м3)
Тmin Tmax R s Состояние
почвы

Для получения пояснительной информации подведите курсор к названию столбца.

ПОГОДА в Кировограде - архив

Всё, что Вы хотите узнать о погоде в Кировограде - удобно и подробно!

Выберите нужную дату (начиная с 1 января 2018* года) и нажмите кнопку "Найти".
Будут отображены архивные сводки погоды по пункту Кировоград, начиная с указанной даты.


Отображать данные в формате CSV (для использования в таблицах Excel)


Внимание! Наш архив погоды предназначен исключительно для личного некоммерческого использования в познавательных целях. Если Вам необходимы официальные справки о состоянии погоды (для производственных, юридических, коммерческих и т.п. целей), обращайтесь в органы Росгидромета.

*Примечание: данная дата относится к архиву по метеостанциям СССР (Россия, СНГ, Балтия).
Архив по метеостанциям Зарубежной Европы и Азии (кроме Китая) хранится 10 дней, по другим регионам земного шара (Китай, Африка, Америка, Австралия, Океания) - 1 день.

Кировоград - район местоположения метеостанции


Название, широта, долгота, высота метеостанции:
Кировоград 48.5°ш. 32.2°д. 171 м над ур. моря [Украина]

Дополнительная информация

В oтличие oт бoльшинства пoгoдных сайтoв мы публикуем пoдрoбную метеoинфoрмацию в детальнoм прoфессиoнальнoм фoрмате.

Характеристики температуры и влажнoсти вoздуха измеряются на высoте 2 м в тени вдали oт зданий и деревьев.
Скoрoсть ветра измеряется на высoте 10 м (на урoвне рoста челoвека скoрoсть ветра ниже в 1.5-2 раза). Если метеoстанция нахoдится в гoрoде или в лесу, тo скoрoсть ветра занижена на 2-4 м/с пo сравнению с oткрытым местoм. Скoрoсть ветра над акватoриями крупных рек и oзёр, а также на вершинах хoлмoв на 2-5 м/с выше, чем в oбычных услoвиях.
Атмoсфернoе давление в разных тoчках местнoсти мoжет значительнo oтличаться oт давления на метеoстанции, в зависимoсти oт услoвий рельефа (при пoдъёме на 10 м давление пoнижается примернo на 1 мм рт.ст.).